TimeEDT,TemperatureF,Dew PointF,Humidity,Sea Level PressureIn,VisibilityMPH,Wind Direction,Wind SpeedMPH,Gust SpeedMPH,PrecipitationIn,Events,Conditions,WindDirDegrees,DateUTC
12:15 AM,69.6,65.7,87,30.05,10.0,Calm,Calm,-,N/A,,Clear,0,2013-08-30 04:15:00
12:35 AM,68.5,65.1,89,30.05,10.0,Calm,Calm,-,N/A,,Scattered Clouds,0,2013-08-30 04:35:00
12:55 AM,68.2,65.5,91,30.05,10.0,Calm,Calm,-,N/A,,Scattered Clouds,0,2013-08-30 04:55:00
1:15 AM,67.1,64.8,92,30.05,10.0,Calm,Calm,-,N/A,,Clear,0,2013-08-30 05:15:00
1:35 AM,66.7,65.3,95,30.05,7.0,Calm,Calm,-,N/A,,Scattered Clouds,0,2013-08-30 05:35:00
1:55 AM,66.7,65.7,96,30.04,7.0,Calm,Calm,-,N/A,,Clear,0,2013-08-30 05:55:00
2:15 AM,67.1,66.0,96,30.03,10.0,Calm,Calm,-,N/A,,Clear,0,2013-08-30 06:15:00
2:35 AM,66.2,65.1,96,30.03,1.5,Calm,Calm,-,N/A,,Mist,0,2013-08-30 06:35:00
2:55 AM,66.6,65.8,98,30.03,5.0,Calm,Calm,-,N/A,,Scattered Clouds,0,2013-08-30 06:55:00
3:15 AM,66.0,65.3,98,30.03,1.2,Calm,Calm,-,N/A,,Mist,0,2013-08-30 07:15:00
3:35 AM,64.8,64.2,98,30.03,1.8,Calm,Calm,-,N/A,,Mist,0,2013-08-30 07:35:00
3:55 AM,65.5,64.8,98,30.03,7.0,Calm,Calm,-,N/A,,Clear,0,2013-08-30 07:55:00
4:15 AM,64.6,63.9,98,30.02,5.0,Calm,Calm,-,N/A,,Scattered Clouds,0,2013-08-30 08:15:00
4:35 AM,64.6,63.9,98,30.03,1.8,Calm,Calm,-,N/A,,Mist,0,2013-08-30 08:35:00
4:55 AM,64.4,63.5,97,30.03,0.5,Calm,Calm,-,N/A,Fog,Fog,0,2013-08-30 08:55:00
5:15 AM,63.1,62.6,98,30.03,0.5,Calm,Calm,-,N/A,Fog,Fog,0,2013-08-30 09:15:00
5:35 AM,63.5,63.0,98,30.03,1.5,Calm,Calm,-,N/A,,Mostly Cloudy,0,2013-08-30 09:35:00
5:53 AM,64.4,62.6,94,30.03,3.0,Calm,Calm,-,N/A,,Clear,0,2013-08-30 09:53:00
6:53 AM,62.6,60.8,94,30.04,3.0,Calm,Calm,-,N/A,,Clear,0,2013-08-30 10:53:00
7:53 AM,62.6,62.6,100,30.05,5.0,Calm,Calm,-,N/A,,Clear,0,2013-08-30 11:53:00
8:53 AM,66.2,66.2,100,30.04,2.0,Calm,Calm,-,N/A,,Clear,0,2013-08-30 12:53:00
9:53 AM,71.6,68.0,88,30.04,7.0,Calm,Calm,-,N/A,,Clear,0,2013-08-30 13:53:00
10:53 AM,77.0,69.8,78,30.03,10.0,Calm,Calm,-,N/A,,Clear,0,2013-08-30 14:53:00
11:53 AM,80.6,68.0,65,30.01,10.0,Calm,Calm,-,N/A,,Clear,0,2013-08-30 15:53:00
12:53 PM,84.2,66.2,55,29.98,10.0,WSW,11.5,-,N/A,,Scattered Clouds,240,2013-08-30 16:53:00
1:53 PM,86.0,-9999,N/A,29.96,10.0,WSW,5.8,-,N/A,,Mostly Cloudy,240,2013-08-30 17:53:00
2:53 PM,86.0,64.4,48,29.95,10.0,SW,10.4,-,N/A,,Mostly Cloudy,230,2013-08-30 18:53:00
3:53 PM,86.0,60.8,43,29.93,10.0,SSW,11.5,-,N/A,,Scattered Clouds,210,2013-08-30 19:53:00
4:53 PM,86.0,60.8,43,29.92,10.0,SSW,8.1,-,N/A,,Scattered Clouds,200,2013-08-30 20:53:00
5:53 PM,86.0,62.6,45,29.90,10.0,SW,6.9,-,N/A,,Partly Cloudy,220,2013-08-30 21:53:00
6:53 PM,82.4,62.6,51,29.87,10.0,SW,5.8,-,N/A,,Partly Cloudy,220,2013-08-30 22:53:00
7:53 PM,77.0,64.4,65,29.88,10.0,WSW,5.8,-,N/A,,Scattered Clouds,240,2013-08-30 23:53:00
8:53 PM,75.2,64.4,69,29.89,10.0,SW,6.9,-,N/A,,Partly Cloudy,230,2013-08-31 00:53:00
9:15 PM,75.0,65.3,72,29.90,10.0,SW,4.6,-,N/A,,Clear,220,2013-08-31 01:15:00
9:35 PM,74.8,65.3,72,29.90,10.0,SW,5.8,-,N/A,,Clear,230,2013-08-31 01:35:00
9:55 PM,74.8,65.1,72,29.90,10.0,WSW,4.6,-,N/A,,Clear,240,2013-08-31 01:55:00
10:15 PM,72.9,64.9,76,29.89,10.0,SSW,4.6,-,N/A,,Scattered Clouds,210,2013-08-31 02:15:00
10:35 PM,74.3,64.9,72,29.89,10.0,SW,5.8,-,N/A,,Clear,220,2013-08-31 02:35:00
10:55 PM,73.8,65.5,75,29.89,10.0,SW,4.6,-,N/A,,Scattered Clouds,230,2013-08-31 02:55:00
11:15 PM,74.3,65.3,73,29.89,10.0,WSW,5.8,-,N/A,,Mostly Cloudy,250,2013-08-31 03:15:00
11:35 PM,73.4,65.7,77,29.89,10.0,SW,5.8,-,N/A,,Mostly Cloudy,230,2013-08-31 03:35:00
11:55 PM,71.4,65.8,82,29.88,10.0,South,4.6,-,N/A,,Scattered Clouds,180,2013-08-31 03:55:00